User: anonymous   Login
Location: Newark
(49.4569°N, 2.2158°E)
Time: 14:51:45
(UTC+00:00)
Language:

Max Valier Satellite - Orbit

View from above orbital plane
View from above orbital plane
View from above satellite
View from above satellite

Ground track
Ground track

The orbit data is extracted from the following two-line orbital elements,

1 42778U 17036P   20049.46349554  .00000678  00000-0  32267-4 0  9995
2 42778  97.3226 106.3214 0013967  86.0008 274.2825 15.22402211147477
Epoch (UTC): 18 February 2020 11:07:26
Eccentricity: 0.0013967
inclination: 97.3226°
perigee height: 489 km
apogee height: 508 km
right ascension of ascending node: 106.3214°
argument of perigee: 86.0008°
revolutions per day: 15.22402211
mean anomaly at epoch: 274.2825°
orbit number at epoch: 14747

The dashed part of the orbit path shows where the satellite is in the earth's shadow,  

DLR